+ View the NASA Portal
+ Center for Near-Earth Object Studies
IMPORTANT:
The SSD Announcement email list is now available. Major changes are coming in the near future, including possible hostname and/or URL changes. To be notified of such changes, subscribe to this email list.
Please visit
this page
for more details.
Don't show this message again
JPL Small-Body Database Browser
Search:
[
help
]
357359 (2003 SU16)
Classification:
Main-belt Asteroid
SPK-ID:
2357359
[
Ephemeris
|
Orbit Diagram
|
Orbital Elements
|
Mission Design
|
Physical Parameters
|
Discovery Circumstances
]
[ show orbit diagram ]
Orbital Elements at Epoch 2458600.5 (2019-Apr-27.0) TDB
Reference:
JPL 6
(heliocentric ecliptic J2000)
Element
Value
Uncertainty (1-sigma)
Units
e
.1726883216764818
8.0505e-08
a
2.525353445372176
2.7392e-08
au
q
2.089254397250934
1.9786e-07
au
i
14.60227824188712
3.9311e-05
deg
node
335.6309889077983
2.9586e-05
deg
peri
102.2055159899251
0.00036399
deg
M
255.4740681765827
0.00033714
deg
t
p
2459026.101577509931
(2020-Jun-25.60157751)
0.0013756
TDB
period
1465.823506480804
4.01
2.385e-05
6.53e-08
d
yr
n
.2455957340077725
3.9959e-09
deg/d
Q
2.961452493493418
3.2123e-08
au
Orbit Determination Parameters
# obs. used (total)
93
data-arc span
5857 days (16.04 yr)
first obs. used
2003-09-17
last obs. used
2019-09-30
planetary ephem.
DE431
SB-pert. ephem.
SB431-N16
condition code
0
norm. resid. RMS
.65257
source
ORB
producer
Otto Matic
solution date
2019-Nov-08 11:07:47
Additional Information
Earth MOID
= 1.15991 au
Jupiter MOID
= 2.36248 au
T_jup
= 3.389
[ show covariance matrix ]
[
Ephemeris
|
Orbit Diagram
|
Orbital Elements
|
Mission Design
|
Physical Parameters
|
Discovery Circumstances
]
Physical Parameter Table
Parameter
Symbol
Value
Units
Sigma
Reference
Notes
absolute magnitude
H
17.9
n/a
MPO353153
357359 (2003 SU16)
Discovered 2003-Sep-17 by Spacewatch at Kitt Peak
Reference:
20130327/Numbers.arc
Last Updated:
2013-03-29
Alternate Designations
2003 SU16
= 2013 CA173
[
Ephemeris
|
Orbit Diagram
|
Orbital Elements
|
Mission Design
|
Physical Parameters
|
Discovery Circumstances
]
2019-Dec-06 21:40 UT
(server date/time)
Site Manager:
Ryan S. Park
Webmaster
:
Alan B. Chamberlin